Home > Weather > Juneau > Past weeks

Flag for USA Weather for the Past 2 Weeks in Juneau, Alaska, USA

Now
45 °F

Light rain. Mostly cloudy.


Feels Like: 38 °F
Forecast: 41 / 47 °F
Wind: 15 mph from Southeast

Location: Juneau International Airport

Current Time: May 5, 2016 at 4:44:55 PM

Latest Report: May 5, 2016 at 3:53 PM


Visibility: 7 mi

Pressure: 30.19 "Hg

Humidity: 90%

Dew Point: 42 °F

Location of JuneauLocation

Historic Weather in Juneau — Graph

°F

Juneau Temperature Yesterday

Maximum temperature yesterday: 48 °F (at 11:53 AM)
Minimum temperature yesterday: 41 °F (at 1:53 AM)
Average temperature yesterday: 45 °F

High & Low Weather Summary for the Past Weeks

 TemperatureHumidityPressure
High61 °F (Apr 22, 3:53 PM)100% (May 3, 4:53 AM)30.22 "Hg (May 3, 4:53 AM)
Low34 °F (Apr 21, 5:53 AM)33% (Apr 20, 3:53 PM)29.62 "Hg (Apr 22, 9:53 PM)
Average46 °F82%29.94 "Hg
* Reported Apr 20 2:53 PM — May 5 2:53 PM, Juneau, Weather by CustomWeather, © 2016

Note: Actual official high and low records may vary slightly from our data, if they occured in-between our weather recording intervals... More about our weather records

Advertising

Juneau Weather History for the Previous 24 Hours

Scroll right to see more
 ConditionsComfort  
Time TempWeatherWind HumidityBarometerVisibility
2:53 PM
Thu, May 5
45 °FLight rain. Mostly cloudy.15 mph86%30.20 "Hg9 mi
1:53 PM45 °FLight rain. Mostly cloudy.17 mph86%30.21 "Hg8 mi
12:53 PM45 °FLight rain. Mostly cloudy.20 mph86%30.21 "Hg8 mi
11:53 AM45 °FLight rain. Mostly cloudy.20 mph86%30.22 "Hg8 mi
10:53 AM45 °FMostly cloudy.16 mph82%30.21 "Hg7 mi
9:53 AM45 °FLight rain. Mostly cloudy.16 mph82%30.20 "Hg8 mi
8:53 AM44 °FLight rain. Mostly cloudy.9 mph85%30.21 "Hg8 mi
7:53 AM43 °FLight rain. Mostly cloudy.7 mph86%30.20 "Hg10 mi
6:53 AM42 °FLight rain. Mostly cloudy.8 mph89%30.19 "Hg10 mi
5:56 AM43 °FLight rain. Fog.8 mph86%30.20 "Hg6 mi
4:53 AM43 °FLight rain. Fog.8 mph89%30.19 "Hg6 mi
4:01 AM43 °FRain. Fog.7 mph89%30.18 "Hg6 mi
3:53 AM43 °FLight rain. Fog.9 mph89%30.18 "Hg6 mi
2:53 AM43 °FLight rain. Mostly cloudy.9 mph89%30.17 "Hg7 mi
1:53 AM44 °FLight rain. Mostly cloudy.10 mph85%30.17 "Hg7 mi
12:53 AM43 °FLight rain. Mostly cloudy.9 mph86%30.16 "Hg7 mi
11:53 PM
Wed, May 4
43 °FLight rain. Mostly cloudy.10 mph89%30.16 "Hg10 mi
10:53 PM44 °FLight rain. Fog.9 mph89%30.16 "Hg6 mi
9:53 PM44 °FLight rain. Mostly cloudy.6 mph89%30.16 "Hg8 mi
8:53 PM45 °FLight rain. Mostly cloudy.No wind82%30.16 "Hg5 mi
7:53 PM45 °FMostly cloudy.10 mph82%30.15 "Hg10 mi
6:53 PM45 °FMostly cloudy.14 mph82%30.15 "Hg10 mi
5:53 PM46 °FCloudy.14 mph79%30.14 "Hg10 mi
4:53 PM46 °FMostly cloudy.14 mph79%30.14 "Hg7 mi
Weather by CustomWeather, © 2016

See weather overviewHow to use our weather pages